Regional Weather Roundup
Issued by NWS

Home | Current Version | Previous Version | Text Only | Print | Product List | Glossary Off
Versions: 1 2 3 4 5 6 7 8 9 10 11 12 13 14 15 16 17 18 19 20 21 22 23 24 25 26 27 28 29 30 31 32 33 34 35 36 37 38 39 40 41 42 43 44 45 46 47 48 49 50

000
ASUS45 KSLC 180710
RWRUT

UTAH REGIONAL WEATHER ROUNDUP
NATIONAL WEATHER SERVICE SALT LAKE CITY UT
100 AM MDT THU SEP 18 2014

UTZ001>011-023>025-180800-

NORTHERN UTAH

CITY           SKY/WX    TMP DP  RH WIND       PRES   REMARKS
HILL AFB       CLEAR     74  41  30 E15G22    29.92S
LOGAN          CLEAR     58  48  69 CALM      29.90S
OGDEN          CLEAR     74  42  31 S15       29.89S
PROVO AIRPORT  CLEAR     70  45  40 E10       29.96S
SALT LAKE CITY PTCLDY    76  42  29 SE12      29.89S
VERNAL         CLEAR     56  42  59 CALM      30.05S
WENDOVER       CLEAR     75  43  31 S5        29.86R
HEBER CITY     CLEAR     50  43  76 CALM      30.05S
WEST JORDAN    CLEAR     72  43  35 S12       29.94R

$$

UTZ012>022-026-027-180800-

SOUTHERN UTAH

CITY           SKY/WX    TMP DP  RH WIND       PRES   REMARKS
BRYCE CANYON   CLEAR     48  44  86 W3        30.22F
CEDAR CITY     CLEAR     61  51  70 S6        30.05S
MILFORD        CLEAR     66  49  54 S6        29.99S
MOAB/CYNLANDS  CLEAR     70  45  40 NE5       29.98R
PRICE          CLEAR     65  35  33 CALM      30.07F
ST GEORGE      SUNNY     75  55  50 SE7       29.88S
KANAB            N/A     61  46  59 N6        30.05F

$$

REGIONAL REPORTS     COLORADO/ARIZONA

CITY           SKY/WX    TMP DP  RH WIND       PRES   REMARKS
CRAIG, CO      CLEAR     47  39  74 CALM      30.13F
GRAND JUNCTION CLEAR     60  39  45 SE6       30.02R
RIFLE          CLEAR     57  43  59 CALM      30.08S
MONTROSE       CLEAR     62  43  49 SE8       30.11S
CORTEZ         CLEAR     51  48  89 N3        30.14F
PAGE, AZ       CLEAR     74  51  44 SW6       29.97F
GRAND CANYON   CLEAR     49  46  90 NE5       30.15F
KINGMAN        CLEAR     69  61  75 SE9       29.93S
FLAGSTAFF      CLEAR     51  48  89 CALM      30.16F

$$

REGIONAL REPORTS    NEVADA/IDAHO/WYOMING

CITY           SKY/WX    TMP DP  RH WIND       PRES   REMARKS
LAS VEGAS, NV  CLEAR     87  58  37 S7        29.76R
ELY            CLEAR     61  44  53 S12       30.06R
ELKO           MOCLDY    68  44  42 VRB5      29.89S
POCATELLO, ID  MOCLDY    73  43  33 SW13      29.90R
BURLEY         CLOUDY    70  51  51 CALM      29.81F
EVANSTON, WY   PTCLDY    60  38  43 S7        30.14F
ROCK SPRINGS   CLEAR     61  34  36 SE5       30.14S

$$



USA.gov is the U.S. government's official web portal to all federal, state and local government web resources and services.